Flag for Czech Republic Weather past 2 weeks in Brno, Czech Republic

Now
64 °F

Partly sunny.


Feels Like: 64 °F
Forecast: 64 / 82 °F
Wind: 3 mph from Northeast

Location: Brno / Turany

Current Time: Jul 29, 2014 at 7:31:07 AM

Latest Report: Jul 29, 2014 at 6:00 AM


Visibility: 11 mi

Pressure: 29.81 "Hg

Humidity: 90%

Dew point: 61 °F

Location of BrnoLocation

Historic Weather in Brno — Graph

°F

Brno temperature yesterday

Maximum temperature yesterday: 79 °F (at 3:00 PM)
Minimum temperature yesterday: 63 °F (at 6:00 AM)
Average temperature yesterday: 71 °F

Past Weeks' High & Low Weather Summary

 TemperatureHumidityPressure
High92 °F (Jul 20, 5:00 PM)92% (Jul 21, 6:00 PM)30.13 "Hg (Jul 21, 6:00 PM)
Low58 °F (Jul 26, 6:00 AM)23% (Jul 17, 4:00 PM)29.66 "Hg (Jul 21, 3:00 PM)
Average73 °F62%29.93 "Hg
* Reported Jul 14 6:00 AM — Jul 29 6:00 AM, Brno, Weather by CustomWeather, © 2014

Note: Actual official high and low records may vary slightly from our data, if they occured in-between our weather recording intervals... More about our weather records

Advertising

Brno weather history for previous 24 hours

 ConditionsComfort  
Time TempWeatherWind HumidityBarometerVisibility
6:00 AM
Jul 29
64 °FPartly sunny.3 mph90%29.81 "Hg11 mi
5:00 AM65 °FPassing clouds.3 mph87%29.82 "Hg12 mi
4:00 AM65 °FOvercast.3 mph90%29.81 "Hg16 mi
3:00 AM65 °FOvercast.2 mph86%29.81 "Hg19 mi
2:00 AM66 °FOvercast.2 mph85%29.82 "Hg19 mi
1:00 AM66 °FOvercast.2 mph84%29.83 "Hg19 mi
12:00 AM67 °FOvercast.2 mph83%29.83 "Hg19 mi
11:00 PM
Jul 28
68 °FOvercast.1 mph78%29.84 "Hg19 mi
10:00 PM69 °FOvercast.3 mph76%29.84 "Hg16 mi
9:00 PM70 °FOvercast.1 mph74%29.84 "Hg12 mi
8:00 PM72 °FOvercast.3 mph63%29.82 "Hg16 mi
7:00 PM74 °FThunderstorms. Overcast.6 mph67%29.82 "Hg16 mi
6:00 PM78 °FThundershowers. Overcast.3 mph56%29.81 "Hg19 mi
5:00 PM79 °FOvercast.5 mph54%29.82 "Hg16 mi
4:00 PM79 °FPartly sunny.3 mph54%29.82 "Hg19 mi
3:00 PM79 °FPartly sunny.3 mph51%29.83 "Hg19 mi
2:00 PM78 °FOvercast.2 mph53%29.86 "Hg19 mi
1:00 PM77 °FOvercast.2 mph55%29.88 "Hg19 mi
12:00 PM75 °FOvercast.2 mph60%29.89 "Hg19 mi
11:00 AM75 °FPartly sunny.2 mph61%29.89 "Hg16 mi
10:00 AM71 °FOvercast.2 mph75%29.90 "Hg12 mi
9:00 AM69 °FOvercast.3 mph80%29.91 "Hg7 mi
8:00 AM67 °FPartly sunny.1 mph84%29.91 "Hg6 mi
7:00 AM64 °FFog.2 mph90%29.92 "Hg3 mi
Weather by CustomWeather, © 2014

See weather overviewHow to use our weather pages